Current Weather Conditions by Major Hwy


I-84 West to East [Columbia River Gorge] 500 AM PDT TUE JUL 07 2020 ELEVA CITY SKY/WX TMP DP RH WIND PRES REMARKS 10 ASTORIA, OR CLOUDY 56 54 93 S3 30.06F 20 KELSO CLOUDY 55 52 89 S3 30.09S 40 PORTLAND, OR CLOUDY 59 50 72 VRB5 30.09S 30 TROUTDALE, OR CLOUDY 58 50 75 S6 30.09S 240 THE DALLES, OR CLEAR 59 47 64 W20G30 29.99R 620 HERMISTON, OR CLEAR 59 46 62 SW17G24 29.92R 1,480 PENDLETON, OR CLEAR 57 43 59 SW13 29.97R 2,710 LA GRANDE PTCLDY 52 43 71 NW16 29.99R 3,370 BAKER CITY PTCLDY 54 40 59 N18 29.94R 2,190 ONTARIO PTCLDY 67 37 33 W14 29.84R
I-90 West to East 500 AM PDT TUE JUL 07 2020 ELEVA CITY SKY/WX TMP DP RH WIND PRES REMARKS 30 SEATAC AIRPORT CLOUDY 57 50 77 SW13 30.04S 1,730 ELLENSBURG CLEAR 55 42 61 NW21 29.92R 1,200 MOSES LAKE CLEAR 61 45 55 SW8 29.84R 1,880 SPOKANE GEIGER MOCLDY 55 49 80 S8 29.90R
I-82 North West to South East 500 AM PDT TUE JUL 07 2020 ELEVA CITY SKY/WX TMP DP RH WIND PRES REMARKS 1,730 ELLENSBURG CLEAR 55 42 61 NW21 29.92R 1,050 YAKIMA TC FAIR 54 40 59 S5 29.90R 720 360 PASCO CLEAR 61 47 59 SW8 29.90R 620 HERMISTON, OR CLEAR 59 46 62 SW17G24 29.92R
Hwy97 North to South 500 AM PDT TUE JUL 07 2020 ELEVA CITY SKY/WX TMP DP RH WIND PRES REMARKS 850 OMAK PTCLDY 63 47 55 NW9 29.81R 630 WENATCHEE CLEAR 60 43 53 W13 29.86R 1,730 ELLENSBURG CLEAR 55 42 61 NW21 29.92R 1,050 YAKIMA TC FAIR 54 40 59 S5 29.90R 1,640 GOLDENDALE* CLEAR 59 47 64 W20G30 29.99R *From Dallesport Airport Elev 240 3,080 REDMOND CLEAR 45 37 73 CALM 30.05R 4,100 KLAMATH FALLS CLEAR 38 35 89 CALM 30.10R
I-5 North to South 500 AM PDT TUE JUL 07 2020 ELEVA CITY SKY/WX TMP DP RH WIND PRES REMARKS 150 BELLINGHAM CLOUDY 57 50 77 S13G18 30.00S 100 ARLINGTON CLOUDY 55 52 89 CALM 30.04S 610 EVERETT CLOUDY 53 51 93 VRB5 30.04S FOG 30 SEATAC AIRPORT CLOUDY 57 50 77 SW13 30.04S 200 OLYMPIA CLOUDY 54 52 93 S7 30.06S 20 KELSO CLOUDY 55 52 89 S3 30.09S 100 VANCOUVER CLOUDY 59 49 69 CALM 30.09R 40 PORTLAND CLOUDY 59 50 72 VRB5 30.09S 200 SALEM CLOUDY 57 49 74 S5 30.10S 360 EUGENE CLOUDY 56 49 77 S6 30.13S 510 ROSEBURG CLOUDY 57 49 74 SE5 30.14S 1,300 MEDFORD MOCLDY 54 46 74 N5 30.11R
Data from:
http://www.wrh.noaa.gov/sew/get.php?pil=RWR&sid=OR&version=0&format=printer
http://www.wrh.noaa.gov/sew/get.php?pil=RWR&sid=WA&version=0&format=printer

Current Observations

Washington State Current Weather Observations   …  Oregon State Current Weather Observation



48 Hour Forecast

Seattle  …  Vancouver  …  Portland
————————————————————————————————————————
Bend  …  Spokane  …  Richland  …  Pendleton  …  Blue Mountains I-84  …  Yakima
————————————————————————————————————————
Goldendale, Washington Higher Elevations  …  Dallesport Airport - Goldendale  …  Bingen - White Salmon - Hood River  …  Index


Top of Page